| time (UTC) | temp F | wind direction | speed MPH | gust MPH | rain 1hr in | rain 24hr in | rain mn in | humidity % | barometer mb |
| 20260505100346 | 55 | 232 | 6.0 | 9.0 | 0.00 | 0.00 | 0.00 | 77 | 1008.4 |
| 20260505095944 | 55 | 232 | 5.0 | 8.0 | 0.00 | 0.00 | 0.00 | 77 | 1008.3 |
| 20260505095345 | 55 | 239 | 6.0 | 10.0 | 0.00 | 0.00 | 0.00 | 76 | 1008.4 |
| 20260505094744 | 55 | 224 | 6.0 | 9.0 | 0.00 | 0.00 | 0.00 | 76 | 1008.4 |
| 20260505094346 | 55 | 226 | 6.0 | 9.0 | 0.00 | 0.00 | 0.00 | 76 | 1008.3 |
| 20260505093544 | 55 | 238 | 7.0 | 10.0 | 0.00 | 0.00 | 0.00 | 76 | 1008.4 |
| 20260505093345 | 56 | 232 | 7.0 | 10.0 | 0.00 | 0.00 | 0.00 | 76 | 1008.4 |
| 20260505092344 | 56 | 202 | 7.0 | 11.0 | 0.00 | 0.00 | 0.00 | 76 | 1008.3 |
| 20260505091346 | 55 | 227 | 7.0 | 11.0 | 0.00 | 0.00 | 0.00 | 77 | 1008.3 |
| 20260505091144 | 55 | 236 | 6.0 | 10.0 | 0.00 | 0.00 | 0.00 | 77 | 1008.3 |
| 20260505090345 | 56 | 234 | 5.0 | 8.0 | 0.00 | 0.00 | 0.00 | 77 | 1008.3 |
| 20260505085944 | 56 | 246 | 5.0 | 10.0 | 0.00 | 0.00 | 0.00 | 77 | 1008.4 |
| 20260505085350 | 56 | 207 | 5.0 | 9.0 | 0.00 | 0.00 | 0.00 | 76 | 1008.4 |
| 20260505084744 | 56 | 240 | 5.0 | 11.0 | 0.00 | 0.00 | 0.00 | 76 | 1008.3 |
| 20260505084345 | 56 | 252 | 5.0 | 8.0 | 0.00 | 0.00 | 0.00 | 76 | 1008.4 |
| 20260505083544 | 56 | 222 | 4.0 | 8.0 | 0.00 | 0.00 | 0.00 | 75 | 1008.3 |
| 20260505083345 | 56 | 209 | 4.0 | 8.0 | 0.00 | 0.00 | 0.00 | 75 | 1008.3 |
| 20260505082344 | 57 | 236 | 5.0 | 8.0 | 0.00 | 0.00 | 0.00 | 74 | 1008.3 |
| 20260505081348 | 57 | 229 | 5.0 | 10.0 | 0.00 | 0.00 | 0.00 | 72 | 1008.3 |
| 20260505081144 | 57 | 225 | 5.0 | 10.0 | 0.00 | 0.00 | 0.00 | 72 | 1008.3 |
| 20260505080346 | 57 | 244 | 5.0 | 14.0 | 0.00 | 0.00 | 0.00 | 71 | 1008.3 |
| 20260505075944 | 58 | 232 | 5.0 | 14.0 | 0.00 | 0.00 | 0.00 | 70 | 1008.3 |
| 20260505075346 | 58 | 187 | 6.0 | 12.0 | 0.00 | 0.00 | 0.00 | 70 | 1008.3 |
| 20260505074744 | 58 | 197 | 5.0 | 11.0 | 0.00 | 0.00 | 0.00 | 69 | 1008.2 |
| 20260505074347 | 58 | 188 | 5.0 | 10.0 | 0.00 | 0.00 | 0.00 | 68 | 1008.2 |
| 20260505073544 | 59 | 188 | 4.0 | 10.0 | 0.00 | 0.00 | 0.00 | 68 | 1008.2 |
| 20260505073346 | 59 | 208 | 4.0 | 9.0 | 0.00 | 0.00 | 0.00 | 68 | 1008.2 |
| 20260505072345 | 59 | 236 | 5.0 | 9.0 | 0.00 | 0.00 | 0.00 | 68 | 1008.1 |
| 20260505071345 | 59 | 232 | 5.0 | 9.0 | 0.00 | 0.00 | 0.00 | 67 | 1008.1 |
| 20260505071144 | 59 | 244 | 5.0 | 9.0 | 0.00 | 0.00 | 0.00 | 67 | 1008.1 |
| 20260505070346 | 59 | 216 | 6.0 | 10.0 | 0.00 | 0.00 | 0.00 | 67 | 1008.1 |
| 20260505065944 | 59 | 171 | 7.0 | 11.0 | 0.00 | 0.00 | 0.00 | 67 | 1008.1 |
| 20260505065345 | 59 | 246 | 8.0 | 11.0 | 0.00 | 0.00 | 0.00 | 67 | 1008.2 |
| 20260505064745 | 60 | 242 | 6.0 | 13.0 | 0.00 | 0.00 | 0.00 | 66 | 1008.2 |
| 20260505064345 | 59 | 229 | 6.0 | 10.0 | 0.00 | 0.00 | 0.00 | 66 | 1008.0 |
| 20260505063545 | 59 | 226 | 6.0 | 11.0 | 0.00 | 0.00 | 0.00 | 66 | 1008.1 |
| 20260505063346 | 59 | 178 | 6.0 | 10.0 | 0.00 | 0.00 | 0.00 | 66 | 1008.2 |
| 20260505062345 | 59 | 252 | 6.0 | 9.0 | 0.00 | 0.00 | 0.00 | 66 | 1008.5 |
| 20260505061346 | 59 | 237 | 7.0 | 12.0 | 0.00 | 0.00 | 0.00 | 66 | 1008.5 |
| 20260505061145 | 59 | 227 | 7.0 | 12.0 | 0.00 | 0.00 | 0.00 | 65 | 1008.5 |
| 20260505060346 | 59 | 229 | 8.0 | 12.0 | 0.00 | 0.00 | 0.00 | 65 | 1008.5 |
| 20260505055346 | 59 | 247 | 6.0 | 10.0 | 0.00 | 0.00 | 0.00 | 66 | 1008.5 |
| 20260505054745 | 59 | 215 | 6.0 | 9.0 | 0.00 | 0.00 | 0.00 | 67 | 1008.5 |
| 20260505054346 | 59 | 238 | 7.0 | 10.0 | 0.00 | 0.00 | 0.00 | 67 | 1008.5 |
| 20260505053545 | 59 | 238 | 7.0 | 11.0 | 0.00 | 0.00 | 0.00 | 67 | 1008.5 |
| 20260505053348 | 59 | 244 | 6.0 | 10.0 | 0.00 | 0.00 | 0.00 | 67 | 1008.6 |
| 20260505052345 | 59 | 232 | 6.0 | 10.0 | 0.00 | 0.00 | 0.00 | 67 | 1008.5 |
| 20260505051346 | 59 | 233 | 5.0 | 9.0 | 0.00 | 0.00 | 0.00 | 67 | 1008.5 |
| 20260505051145 | 59 | 242 | 5.0 | 9.0 | 0.00 | 0.00 | 0.00 | 67 | 1008.4 |
| 20260505050346 | 59 | 250 | 6.0 | 10.0 | 0.00 | 0.00 | 0.00 | 67 | 1008.4 |
| 20260505041346 | 59 | 183 | 5.0 | 11.0 | 0.00 | 0.00 | 0.00 | 66 | 1008.4 |
| 20260505041145 | 59 | 229 | 5.0 | 12.0 | 0.00 | 0.00 | 0.00 | 66 | 1008.4 |
| 20260505040346 | 59 | 241 | 6.0 | 9.0 | 0.00 | 0.00 | 0.00 | 65 | 1008.4 |
| 20260505035945 | 59 | 242 | 6.0 | 12.0 | 0.00 | 0.00 | 0.00 | 65 | 1008.3 |
| 20260505035346 | 59 | 220 | 6.0 | 11.0 | 0.00 | 0.00 | 0.00 | 65 | 1008.3 |
| 20260505034745 | 59 | 192 | 5.0 | 9.0 | 0.00 | 0.00 | 0.00 | 65 | 1008.3 |
| 20260505034347 | 59 | 231 | 5.0 | 10.0 | 0.00 | 0.00 | 0.00 | 64 | 1008.2 |
| 20260505033545 | 59 | 158 | 6.0 | 9.0 | 0.00 | 0.00 | 0.00 | 63 | 1008.2 |
| 20260505033346 | 60 | 214 | 6.0 | 9.0 | 0.00 | 0.00 | 0.00 | 63 | 1008.1 |
| 20260505032345 | 60 | 173 | 5.0 | 11.0 | 0.00 | 0.00 | 0.00 | 63 | 1008.2 |
| 20260505031346 | 60 | 238 | 6.0 | 10.0 | 0.00 | 0.00 | 0.00 | 62 | 1008.3 |
| 20260505031145 | 60 | 212 | 6.0 | 12.0 | 0.00 | 0.00 | 0.00 | 62 | 1008.4 |
| 20260505030347 | 60 | 175 | 5.0 | 13.0 | 0.00 | 0.00 | 0.00 | 62 | 1008.4 |
| 20260505025945 | 60 | 218 | 5.0 | 10.0 | 0.00 | 0.00 | 0.00 | 62 | 1008.4 |
| 20260505025346 | 60 | 214 | 4.0 | 9.0 | 0.00 | 0.00 | 0.00 | 62 | 1008.5 |
| 20260505024745 | 59 | 188 | 4.0 | 8.0 | 0.00 | 0.00 | 0.00 | 63 | 1008.5 |
| 20260505024346 | 60 | 240 | 4.0 | 10.0 | 0.00 | 0.00 | 0.00 | 62 | 1008.4 |
| 20260505023545 | 60 | 218 | 4.0 | 7.0 | 0.00 | 0.00 | 0.00 | 62 | 1008.4 |
| 20260505023346 | 60 | 196 | 4.0 | 7.0 | 0.00 | 0.00 | 0.00 | 62 | 1008.4 |
| 20260505022345 | 60 | 198 | 4.0 | 9.0 | 0.00 | 0.00 | 0.00 | 61 | 1008.4 |
| 20260505021346 | 60 | 185 | 4.0 | 10.0 | 0.00 | 0.00 | 0.00 | 61 | 1008.4 |
| 20260505021145 | 60 | 239 | 4.0 | 10.0 | 0.00 | 0.00 | 0.00 | 60 | 1008.4 |
| 20260505020347 | 60 | 188 | 4.0 | 7.0 | 0.00 | 0.00 | 0.00 | 59 | 1008.4 |
| 20260505015945 | 61 | 236 | 5.0 | 7.0 | 0.00 | 0.00 | 0.00 | 59 | 1008.5 |
| 20260505015346 | 61 | 157 | 5.0 | 10.0 | 0.00 | 0.00 | 0.00 | 59 | 1008.6 |
| 20260505014745 | 61 | 235 | 4.0 | 11.0 | 0.00 | 0.00 | 0.00 | 58 | 1008.5 |
| 20260505014346 | 61 | 194 | 4.0 | 10.0 | 0.00 | 0.00 | 0.00 | 58 | 1008.5 |
| 20260505013545 | 61 | 199 | 5.0 | 11.0 | 0.00 | 0.00 | 0.00 | 57 | 1008.6 |
| 20260505013347 | 61 | 177 | 5.0 | 11.0 | 0.00 | 0.00 | 0.00 | 57 | 1008.5 |
| 20260505012345 | 61 | 243 | 6.0 | 15.0 | 0.00 | 0.00 | 0.00 | 56 | 1008.3 |
| 20260505011348 | 62 | 240 | 5.0 | 11.0 | 0.00 | 0.00 | 0.00 | 55 | 1008.1 |
| 20260505011145 | 62 | 134 | 5.0 | 11.0 | 0.00 | 0.00 | 0.00 | 56 | 1008.1 |
| 20260505010347 | 62 | 199 | 6.0 | 11.0 | 0.00 | 0.00 | 0.00 | 55 | 1008.0 |
| 20260505005945 | 62 | 161 | 6.0 | 13.0 | 0.00 | 0.00 | 0.00 | 54 | 1008.0 |
| 20260505005354 | 62 | 238 | 6.0 | 12.0 | 0.00 | 0.00 | 0.00 | 54 | 1008.0 |
| 20260505004745 | 62 | 235 | 7.0 | 13.0 | 0.00 | 0.00 | 0.00 | 53 | 1008.0 |
| 20260505004347 | 62 | 238 | 7.0 | 14.0 | 0.00 | 0.00 | 0.00 | 53 | 1007.9 |
| 20260505003545 | 63 | 223 | 8.0 | 15.0 | 0.00 | 0.00 | 0.00 | 52 | 1007.9 |
| 20260505003347 | 63 | 237 | 8.0 | 15.0 | 0.00 | 0.00 | 0.00 | 51 | 1007.9 |
| 20260505002345 | 63 | 240 | 7.0 | 16.0 | 0.00 | 0.00 | 0.00 | 50 | 1007.9 |
| 20260505001346 | 63 | 184 | 7.0 | 15.0 | 0.00 | 0.00 | 0.00 | 49 | 1007.8 |
| 20260505001145 | 63 | 219 | 7.0 | 14.0 | 0.00 | 0.00 | 0.00 | 48 | 1007.7 |
| 20260505000346 | 64 | 236 | 7.0 | 10.0 | 0.00 | 0.00 | 0.00 | 48 | 1007.8 |
| 20260504235945 | 64 | 222 | 8.0 | 14.0 | 0.00 | 0.00 | 0.00 | 47 | 1007.8 |
| 20260504235351 | 65 | 233 | 7.0 | 16.0 | 0.00 | 0.00 | 0.00 | 46 | 1007.9 |
| 20260504234745 | 65 | 254 | 6.0 | 13.0 | 0.00 | 0.00 | 0.00 | 46 | 1007.9 |
| 20260504234346 | 65 | 259 | 6.0 | 14.0 | 0.00 | 0.00 | 0.00 | 46 | 1007.8 |
| 20260504233545 | 66 | 244 | 6.0 | 13.0 | 0.00 | 0.00 | 0.00 | 45 | 1007.8 |
| 20260504233347 | 66 | 196 | 6.0 | 13.0 | 0.00 | 0.00 | 0.00 | 45 | 1007.8 |
| 20260504232345 | 66 | 225 | 5.0 | 11.0 | 0.00 | 0.00 | 0.00 | 45 | 1007.9 |
| 20260504231346 | 67 | 228 | 6.0 | 12.0 | 0.00 | 0.00 | 0.00 | 44 | 1007.9 |
| 20260504231145 | 67 | 214 | 6.0 | 13.0 | 0.00 | 0.00 | 0.00 | 44 | 1007.9 |
| 20260504230346 | 67 | 248 | 6.0 | 12.0 | 0.00 | 0.00 | 0.00 | 43 | 1008.0 |
| 20260504225945 | 68 | 225 | 5.0 | 13.0 | 0.00 | 0.00 | 0.00 | 44 | 1008.0 |
| 20260504225346 | 68 | 261 | 6.0 | 8.0 | 0.00 | 0.00 | 0.00 | 43 | 1008.0 |
| 20260504224745 | 68 | 192 | 6.0 | 13.0 | 0.00 | 0.00 | 0.00 | 42 | 1008.0 |
| 20260504224347 | 68 | 215 | 6.0 | 14.0 | 0.00 | 0.00 | 0.00 | 42 | 1008.0 |
| 20260504223545 | 68 | 183 | 7.0 | 14.0 | 0.00 | 0.00 | 0.00 | 44 | 1008.0 |
| 20260504223348 | 68 | 242 | 6.0 | 14.0 | 0.00 | 0.00 | 0.00 | 43 | 1008.0 |
| 20260504222346 | 68 | 232 | 6.0 | 11.0 | 0.00 | 0.00 | 0.00 | 43 | 1008.0 |
| 20260504221347 | 69 | 200 | 6.0 | 14.0 | 0.00 | 0.00 | 0.00 | 42 | 1008.0 |
| 20260504221146 | 69 | 189 | 6.0 | 14.0 | 0.00 | 0.00 | 0.00 | 41 | 1008.0 |
| 20260504220347 | 69 | 206 | 5.0 | 11.0 | 0.00 | 0.00 | 0.00 | 41 | 1008.0 |
| 20260504215945 | 69 | 228 | 5.0 | 9.0 | 0.00 | 0.00 | 0.00 | 42 | 1008.0 |
| 20260504215354 | 69 | 236 | 6.0 | 9.0 | 0.00 | 0.00 | 0.00 | 44 | 1008.1 |
| 20260504214746 | 69 | 242 | 7.0 | 14.0 | 0.00 | 0.00 | 0.00 | 41 | 1008.0 |
| 20260504214347 | 69 | 167 | 6.0 | 14.0 | 0.00 | 0.00 | 0.00 | 41 | 1008.0 |
| 20260504213546 | 69 | 232 | 6.0 | 14.0 | 0.00 | 0.00 | 0.00 | 41 | 1008.0 |
| 20260504213347 | 69 | 219 | 8.0 | 14.0 | 0.00 | 0.00 | 0.00 | 43 | 1008.0 |
| 20260504212346 | 69 | 233 | 9.0 | 17.0 | 0.00 | 0.00 | 0.00 | 41 | 1008.1 |
| 20260504211347 | 69 | 215 | 7.0 | 12.0 | 0.00 | 0.00 | 0.00 | 41 | 1008.0 |
| 20260504211146 | 69 | 227 | 7.0 | 12.0 | 0.00 | 0.00 | 0.00 | 41 | 1008.1 |
| 20260504210349 | 70 | 239 | 6.0 | 17.0 | 0.00 | 0.00 | 0.00 | 41 | 1008.0 |
| 20260504205946 | 70 | 184 | 6.0 | 15.0 | 0.00 | 0.00 | 0.00 | 40 | 1008.1 |
| 20260504205349 | 70 | 236 | 6.0 | 14.0 | 0.00 | 0.00 | 0.00 | 39 | 1007.9 |
| 20260504204746 | 69 | 199 | 7.0 | 13.0 | 0.00 | 0.00 | 0.00 | 40 | 1008.2 |
| 20260504204347 | 70 | 220 | 7.0 | 15.0 | 0.00 | 0.00 | 0.00 | 41 | 1008.1 |
| 20260504203546 | 70 | 213 | 8.0 | 13.0 | 0.00 | 0.00 | 0.00 | 40 | 1008.1 |
| 20260504203347 | 70 | 247 | 8.0 | 13.0 | 0.00 | 0.00 | 0.00 | 41 | 1008.1 |
| 20260504202346 | 70 | 265 | 10.0 | 17.0 | 0.00 | 0.00 | 0.00 | 38 | 1008.2 |
| 20260504201347 | 70 | 240 | 9.0 | 18.0 | 0.00 | 0.00 | 0.00 | 38 | 1008.3 |
| 20260504201146 | 70 | 228 | 8.0 | 17.0 | 0.00 | 0.00 | 0.00 | 38 | 1008.4 |
| 20260504200347 | 69 | 237 | 11.0 | 17.0 | 0.00 | 0.00 | 0.00 | 39 | 1008.5 |
| 20260504195946 | 69 | 262 | 12.0 | 17.0 | 0.00 | 0.00 | 0.00 | 38 | 1008.6 |
| 20260504195347 | 69 | 233 | 10.0 | 18.0 | 0.00 | 0.00 | 0.00 | 40 | 1008.7 |
| 20260504194746 | 69 | 212 | 10.0 | 15.0 | 0.00 | 0.00 | 0.00 | 39 | 1008.8 |
| 20260504194347 | 69 | 238 | 10.0 | 20.0 | 0.00 | 0.00 | 0.00 | 38 | 1008.8 |
| 20260504193546 | 69 | 243 | 10.0 | 16.0 | 0.00 | 0.00 | 0.00 | 40 | 1008.9 |
| 20260504193347 | 69 | 238 | 11.0 | 16.0 | 0.00 | 0.00 | 0.00 | 39 | 1008.9 |
| 20260504192346 | 69 | 255 | 11.0 | 16.0 | 0.00 | 0.00 | 0.00 | 42 | 1009.2 |
| 20260504191347 | 69 | 242 | 11.0 | 17.0 | 0.00 | 0.00 | 0.00 | 40 | 1009.3 |
| 20260504191146 | 69 | 246 | 11.0 | 17.0 | 0.00 | 0.00 | 0.00 | 42 | 1009.2 |
| 20260504190348 | 68 | 224 | 10.0 | 15.0 | 0.00 | 0.00 | 0.00 | 39 | 1009.3 |
| 20260504185946 | 69 | 223 | 10.0 | 17.0 | 0.00 | 0.00 | 0.00 | 40 | 1009.5 |
| 20260504185349 | 69 | 250 | 10.0 | 16.0 | 0.00 | 0.00 | 0.00 | 39 | 1009.5 |
| 20260504184746 | 68 | 230 | 12.0 | 18.0 | 0.00 | 0.00 | 0.00 | 42 | 1009.6 |
| 20260504184347 | 68 | 258 | 11.0 | 19.0 | 0.00 | 0.00 | 0.00 | 39 | 1009.6 |
| 20260504183546 | 68 | 259 | 8.0 | 13.0 | 0.00 | 0.00 | 0.00 | 40 | 1009.6 |
| 20260504183347 | 68 | 243 | 8.0 | 12.0 | 0.00 | 0.00 | 0.00 | 42 | 1009.7 |
| 20260504182346 | 67 | 245 | 9.0 | 15.0 | 0.00 | 0.00 | 0.00 | 42 | 1009.7 |
| 20260504181347 | 67 | 246 | 8.0 | 19.0 | 0.00 | 0.00 | 0.00 | 41 | 1009.9 |
| 20260504181146 | 67 | 240 | 8.0 | 19.0 | 0.00 | 0.00 | 0.00 | 40 | 1009.9 |
| 20260504180347 | 67 | 234 | 7.0 | 15.0 | 0.00 | 0.00 | 0.00 | 42 | 1010.0 |
| 20260504175946 | 67 | 192 | 8.0 | 14.0 | 0.00 | 0.00 | 0.00 | 42 | 1010.1 |
| 20260504175346 | 66 | 279 | 11.0 | 14.0 | 0.00 | 0.00 | 0.00 | 41 | 1010.3 |
| 20260504174746 | 66 | 246 | 11.0 | 17.0 | 0.00 | 0.00 | 0.00 | 41 | 1010.3 |
| 20260504174348 | 66 | 237 | 9.0 | 15.0 | 0.00 | 0.00 | 0.00 | 44 | 1010.4 |
| 20260504173546 | 66 | 236 | 9.0 | 16.0 | 0.00 | 0.00 | 0.00 | 42 | 1010.4 |
| 20260504173347 | 66 | 236 | 8.0 | 15.0 | 0.00 | 0.00 | 0.00 | 43 | 1010.5 |
| 20260504172346 | 65 | 216 | 8.0 | 11.0 | 0.00 | 0.00 | 0.00 | 43 | 1010.6 |
| 20260504171347 | 65 | 238 | 10.0 | 19.0 | 0.00 | 0.00 | 0.00 | 42 | 1010.8 |
| 20260504171146 | 65 | 236 | 10.0 | 19.0 | 0.00 | 0.00 | 0.00 | 40 | 1010.9 |
| 20260504170347 | 65 | 252 | 8.0 | 16.0 | 0.00 | 0.00 | 0.00 | 41 | 1010.9 |
| 20260504160347 | 63 | 288 | 7.0 | 13.0 | 0.00 | 0.00 | 0.00 | 47 | 1011.8 |
| 20260504151146 | 61 | 259 | 7.0 | 12.0 | 0.00 | 0.00 | 0.00 | 48 | 1012.3 |
| 20260504150347 | 60 | 243 | 8.0 | 10.0 | 0.00 | 0.00 | 0.00 | 47 | 1012.4 |
| 20260504141146 | 57 | 253 | 5.0 | 10.0 | 0.00 | 0.00 | 0.00 | 58 | 1012.5 |
| 20260504140348 | 56 | 241 | 5.0 | 11.0 | 0.00 | 0.00 | 0.00 | 57 | 1012.6 |
| 20260504130351 | 51 | 233 | 6.0 | 12.0 | 0.00 | 0.00 | 0.00 | 65 | 1012.8 |
| 20260504110348 | 45 | 181 | 4.0 | 7.0 | 0.00 | 0.00 | 0.00 | 64 | 1013.0 |